Other Public Products
Issued by NWS Grand Forks, ND

Home | Current Version | Previous Version | Graphics & Text | Print | Product List | Glossary On
Versions: 1 2 3 4 5 6 7 8 9 10 11 12 13 14 15 16 17 18 19 20 21 22 23 24 25 26 27 28 29 30 31 32 33 34 35 36 37 38 39 40 41 42 43 44 45 46 47 48 49 50
000
FPUS83 KFGF 040410
OPUFGF
PRAIRIE TO PINES WEATHER ROUNDUP
NATIONAL WEATHER SERVICE EASTERN NORTH DAKOTA/GRAND FORKS ND
1100 PM CDT THU SEP 03 2015

 **SATELLITE DATA USED TO AUGMENT SKY COVER AT AUTOMATED STATIONS**
 *****  WEATHER ACROSS EASTERN NORTH DAKOTA  *****

CITY           SKY/WX    TMP DP  RH WIND       PRES   REMARKS
GRAND FORKS    CLOUDY    81  73  76 S16G25    29.75R
GRAND FORKS AF CLOUDY    80  73  80 S15       29.76R
GRAND CITY NWS   N/A     79 N/A N/A S16         N/A
BUXTON         NOT AVBL
DEVILS LAKE    CLOUDY    79  64  61 SE14      29.73R
FARGO          MOCLDY    80  73  79 SE15      29.79S
WAHPETON ARPT  PTCLDY    77  70  78 SE13      29.81S
$$

 *****  WEATHER ACROSS CENTRAL AND WESTERN NORTH DAKOTA  *****

CITY           SKY/WX    TMP DP  RH WIND       PRES   REMARKS
JAMESTOWN      CLOUDY    79  72  79 S13       29.76R
BISMARCK       CLOUDY    85  58  39 S21       29.69S
MINOT          MOCLDY    75  70  84 NW9       29.72R
MINOT AFB      NOT AVBL
GARRISON         N/A     71  66  84 N6        29.72S
WILLISTON      CLOUDY    71  53  52 N14       29.78S
DICKINSON      PTCLDY    74  61  63 NE10      29.72F
HETTINGER      CLEAR     71  53  52 SE5       29.73F
$$

 *****  OTHER OBSERVATIONS NORTHEAST NORTH DAKOTA  *****

CITY           SKY/WX    TMP DP  RH WIND       PRES   REMARKS
WALHALLA       FAIR      81  77  89 MISG      29.71S
LANGDON        FAIR      81  73  78 S17       29.75R
CAVALIER       FAIR      81  72  74 S16G23    29.73R
GRAFTON        FAIR      81  73  78 S14G21    29.76R
CANDO          NOT AVBL
FORT TOTTEN      N/A     78  64  61 S9        29.95S
ROLLA          FAIR      81  63  54 S18G24    29.73R
RUGBY          FAIR      84  61  45 S21G29    29.71R
 ***** THE ABOVE OBSERVATIONS ARE NON NWS ARE NOT QUALITY
        CONTROLLED AND MAY MIS-REPORT RAIN FOR SNOW...
$$

 *****  OTHER OBSERVATIONS SOUTHEAST NORTH DAKOTA *****

CITY           SKY/WX    TMP DP  RH WIND       PRES   REMARKS
COOPERSTOWN    NOT AVBL
VALLEY CITY    FAIR      79  77  94 S14G22    29.78S
OAKES            N/A     75  75 100 SE12      29.78F
GWINNER          N/A     79  79 100 SE10      29.79F
SHEYENNE NWR     N/A     77  74  91 SE7       29.95S
BUFFALO        NOT AVBL
WYNDMERE         N/A     79  75  89 SE9         N/A
 ***** THE ABOVE OBSERVATIONS ARE NON NWS ARE NOT QUALITY
       CONTROLLED AND MAY MIS-REPORT RAIN FOR SNOW...
$$

  *****  WEATHER ACROSS NORTHERN MINNESOTA  *****

CITY           SKY/WX    TMP DP  RH WIND       PRES   REMARKS
FLAG ISLAND    CLEAR     73  64  73 S18       29.84R
WARROAD        CLEAR     73  66  78 S12       29.83S
ROSEAU         PTCLDY    73  66  78 S12       29.81S
HALLOCK        PTCLDY    82  72  69 S21       29.74S
THF RVR FALLS  MOCLDY    75  72  88 SE12      29.82S
HALSTAD        NOT AVBL
FOSSTON        PTCLDY    73  66  78 SE13      29.85S
BAUDETTE       CLEAR     70  62  76 SE12      29.87S
WASKISH        CLEAR     70  64  83 SE10      29.88F
CROOKSTON      CLOUDY    79  72  78 S14       29.80S
$$
  *****  WEATHER ACROSS CENTRAL AND WEST MINNESOTA  *****

CITY           SKY/WX    TMP DP  RH WIND       PRES   REMARKS
BEMIDJI        CLEAR     70  67  88 SE10      29.90S
PARK RAPIDS    CLEAR     73  67  81 SE8       29.90S
WADENA         MOCLDY    73  70  88 SE9       29.89S
DETROIT LAKES  CLEAR     73  70  88 SE13G18   29.88R
MOORHEAD       MOCLDY    79  73  83 SE9G17    29.81R
FERGUS FALLS   CLEAR     79  72  78 SE13      29.82S
ELBOW LAKE     FAIR      76  73  90 SE14      29.84S
MORRIS MN      CLEAR     77  73  88 SE13G18   29.83S
STAPLES        MOCLDY    72  66  83 SE6       29.90F
WHEATON        PTCLDY    73  72  94 SE13      29.82F
$$
  *****  WEATHER ELSEWHERE ACROSS MINNESOTA  *****

CITY           SKY/WX    TMP DP  RH WIND       PRES   REMARKS
DULUTH         CLEAR     58  52  80 E5        29.99S
INTRNTL FALLS  CLEAR     64  60  87 SE8       29.92S
ELY            CLEAR     57  48  72 SE3       30.00R
CLOQUET        CLEAR     57  52  82 CALM      29.98S
BRAINERD       CLEAR     69  66  90 VRB5      29.92S
HIBBING        CLEAR     57  50  77 SE7       29.98S
ALEXANDRIA     MOCLDY    74  71  91 SE13      29.89F
SAINT CLOUD    CLEAR     73  69  87 E6        29.90S
MINNEAPOLIS    CLEAR     76  70  82 E12       29.90S
$$

  *****  WEATHER ACROSS SOUTH DAKOTA  *****

CITY           SKY/WX    TMP DP  RH WIND       PRES   REMARKS
SIOUX FALLS    MOCLDY    79  72  79 SE9       29.81F
BROOKINGS      MOCLDY    75  70  83 SE10      29.84F
WATERTOWN      PTCLDY    76  71  85 SE8       29.82F
HURON          MOCLDY    77  72  84 SE12      29.74F
SISSETON         N/A     77  74  90 S8        29.79F
ABERDEEN       MOCLDY    77  71  82 SE8       29.76F
MITCHELL       MOCLDY    77  73  87 SE8       29.76S
PIERRE         CLOUDY    79  71  76 E10       29.70S
MOBRIDGE       MOCLDY    76  72  87 E3        29.72S
RAPID CITY     CLOUDY    79  50  36 S13       29.78S
$$

  *****  SOME WEATHER IN NEARBY STATES *****

CITY           SKY/WX    TMP DP  RH WIND       PRES   REMARKS
GLASGOW MT     MOCLDY    66  36  32 NE23      29.84F
GREAT FALLS MT LGT RAIN  50  49  96 E8        29.99F
CHEYENNE WY    PTCLDY    58  47  66 W7        30.04S
SCOTTSBLUFF NE LGT RAIN  69  60  73 CALM      29.91F
OMAHA NE       MOCLDY    81  69  67 S14       29.84S
DES MOINES IA  PTCLDY    79  70  74 SE7       29.89S
DAVENPORT IA   CLEAR     73  70  90 S5        29.93S
CHICAGO IL     MOCLDY    72  67  84 E9        29.96R
EAU CLAIRE WI  PTCLDY    71  65  81 E8        29.95R
LA CROSSE WI   CLEAR     76  69  79 SE6       29.93R
$$

  *****  SOME NATIONAL WEATHER *****

CITY           SKY/WX    TMP DP  RH WIND       PRES   REMARKS
LA GUARDIA NY  MOCLDY    83  65  54 CALM      29.88S
RALEIGH NC     PTCLDY    72  67  84 CALM      29.93S
ATLANTA GA     PTCLDY    73  67  81 N5        29.98S
NEW ORLEANS LA PTCLDY    79  74  84 S5        29.95R
OKLAHOMA CITY  PTCLDY    73  64  73 S5        29.91S
ALBUQUERQUE NM CLOUDY    78  45  30 S15       30.09R
SALT LAKE CITY PTCLDY    83  32  16 S17G25    29.77R
LOS ANGELES CA CLEAR     68  56  65 W5        29.85R
BOISE ID       MOCLDY    64  39  39 NW7       29.85R
SEATTLE WA     MOCLDY    58  49  72 NW6       30.01R
$$

*** WEATHER ACROSS MANITOBA...SASKATCHEWAN AND ONTARIO ***
                ***ONTARIO***

CITY           SKY/WX    TMP DP  RH WIND       PRES   REMARKS
GERALDTON      CLEAR     59  57  94 VRB2      30.06R
THUNDER BAY    CLEAR     59  55  88 NE3       30.03R
SIOUX LOOKOUT  NOT AVBL
TORONTO        MOCLDY    72  64  78 NE5       29.99R
BIG TROUT LK   CLEAR     72  57  60 S8        29.83F
PICKLE LAKE    NOT AVBL
DRYDEN         CLEAR     70  59  68 S13       29.93R
KENORA         PTCLDY    73  63  68 S15G22    29.86S
$$
                *** MANITOBA***

CITY           SKY/WX    TMP DP  RH WIND       PRES   REMARKS
BRANDON        MOCLDY    73  70  88 NE9       29.72R
DAUPHIN        CLOUDY    68  66  94 N8        29.78S
ISLAND LAKE    MOCLDY    66  64  94 CALM      29.77R
PILOT MOUND      N/A     82  66  57 S17         N/A
THE PAS        PTCLDY    63  52  67 NW15G21   29.86R
THOMPSON       PTCLDY    64  55  72 NW8       29.76R
WINNIPEG       CLEAR     79  72  78 SE16      29.71S
LYNN LAKE      CLEAR     54  45  71 W7        29.81R
CHURCHILL      LGT RAIN  50  48  93 E13G22    29.77R
$$
                ***SASKATCHEWAN***

CITY           SKY/WX    TMP DP  RH WIND       PRES   REMARKS
ESTEVAN        CLOUDY    70  50  49 N14G21    29.80S
KINDERSLEY     CLOUDY    52  41  66 S2        29.98R
LLOYDMINSTER   MOCLDY    46  37  71 N5        30.01R
PRINCE ALBERT  CLOUDY    52  46  82 NW3       29.94S
REGINA         PTCLDY    52  43  71 NW10      29.90R
YORKTON        PTCLDY    63  46  55 N10       29.86S


USA.gov is the U.S. government's official web portal to all federal, state and local government web resources and services.